www.pogodaiklimat.ru

Погода и климат >> Архив погоды >> Россия >> Мурманская область >> Верховье Лотты


ПОГОДА в Верховье Лотты

  • Прогноз погоды в Верховье Лотты
  • Монитор погоды в Верховье Лотты

АРХИВ ПОГОДЫ в Верховье Лотты

Время (UTC), дата Ветер
(напр.,м/с)
 
Видим.   Явления Облачность Т
(С)
Тd
(С)
f
(%)
Тe
(С)
Тes
(С)
Комфортность P
(гПа)
Po
(гПа)
Тmin
(С)
Tmax
(С)
R
(мм)
R24
(мм)
S
(см)
09 12.07 СВ 3 н/о н/о +14.8 +3.1 45 +14 +14 1011.9 998.1
12 12.07 СВ 2-6
{10}
н/о н/о +15.6 +2.1 40 +16 +16 1011.4 997.7
15 12.07 СВ 3-7
{10}
н/о н/о +14.7 +2.5 44 +14 +14 1011.4 997.7
18 12.07 СВ 2 50 км 3/0
[]
+11.6 +2.8 55 +11 +11 1012.4 998.5 +16.0
21 12.07 СВ 1 н/о н/о +7.7 +3.9 77 +7 +7 1013.8 999.7
03 13.07 СВ 1 н/о н/о +5.7 +4.9 95 +4 +4 1013.8 999.7 +5.7
06 13.07 СВ 1 20 км 10/0
[]
+7.0 +6.4 96 +6 +9 1014.7 1000.6 +5.6
09 13.07 С 1 н/о н/о +7.4 +6.7 95 +6 +6 1015.0 1000.9
12 13.07 СВ 1 н/о н/о +8.0 +7.6 97 +7 +7 1014.8 1000.7
15 13.07 В 1 н/о н/о +9.4 +8.3 93 +9 +9 1014.8 1000.7
18 13.07 В 1 20 км слаб. ливневой дождь 10/0
[]
+9.0 +7.7 92 +8 +9 1014.7 1000.7 +9.6 0.5
21 13.07 штиль 0 н/о н/о +8.8 +8.7 99 +8 +8 1014.4 1000.4
00 14.07 СВ 2 н/о н/о +6.1 +5.4 95 +4 +4 1015.2 1001.0
03 14.07 СВ 1 н/о н/о +6.6 +5.1 90 +5 +5 1015.2 1001.0 +5.5
06 14.07 СВ 2 20 км 10/0
[]
+8.3 +4.7 78 +6 +9 1015.1 1001.0 +5.5
09 14.07 СВ 1 н/о н/о +10.0 +5.7 75 +10 +10 1014.9 1000.9
12 14.07 СВ 2 н/о н/о +10.7 +5.4 70 +10 +10 1014.6 1000.7
15 14.07 СВ 2 н/о н/о +11.4 +5.1 65 +10 +10 1014.6 1000.7
18 14.07 СВ 1 20 км 10/0
[]
+9.5 +4.5 71 +9 +10 1014.3 1000.3 +11.9
21 14.07 СВ 1 н/о н/о +8.1 +5.1 81 +7 +7 1014.3 1000.3
00 15.07 СВ 1 н/о н/о +7.2 +5.6 90 +6 +6 1014.3 1000.2
03 15.07 СВ 1 н/о н/о +8.3 +6.3 87 +8 +8 1014.3 1000.2 +6.9
06 15.07 В 1 20 км 8/0
[]
+9.4 +5.9 79 +9 +13 1014.3 1000.3 +6.9
09 15.07 В 1 н/о н/о +11.0 +3.7 61 +11 +11 1014.1 1000.2
12 15.07 СВ 1 н/о н/о +12.2 +4.1 58 +12 +12 1013.7 999.9
15 15.07 СВ 1 н/о н/о +12.6 +4.3 57 +13 +13 1013.7 999.9
18 15.07 В 1 50 км 6/0
[]
+11.2 +5.4 67 +11 +12 1014.0 1000.1 +13.8
21 15.07 СВ 1 н/о н/о +9.3 +5.4 77 +9 +9 1014.6 1000.6
00 16.07 штиль 0 н/о н/о +7.9 +5.3 84 +7 +7 1015.4 1001.3
03 16.07 штиль 0 н/о н/о +8.4 +6.1 85 +8 +8 1015.4 1001.3 +7.7
06 16.07 ЮВ 1 20 км 10/0
[]
+9.9 +6.7 80 +9 +13 1015.8 1001.8 +7.7
09 16.07 В 2 н/о н/о +10.3 +4.8 69 +9 +9 1015.9 1002.0
12 16.07 СВ 1 н/о н/о +12.1 +5.3 63 +12 +12 1015.4 1001.5
15 16.07 СВ 2 н/о н/о +10.8 +6.2 73 +10 +10 1015.4 1001.5
18 16.07 СВ 2 20 км 10/0
[]
+8.4 +6.3 87 +6 +7 1015.9 1001.8 +13.3
21 16.07 С 1 н/о н/о +7.1 +7.1 100 +6 +6 1015.5 1001.4
00 17.07 СВ 1 н/о н/о +7.1 +7.1 100 +6 +6 1015.3 1001.2
03 17.07 С 1 н/о н/о +7.6 +7.6 100 +6 +6 1015.3 1001.2 +7.0
06 17.07 С 1 20 км 10/0
[]
+8.6 +7.9 95 +8 +11 1013.8 999.8 +7.0 0.1
09 17.07 СЗ 1 н/о н/о +10.8 +7.0 77 +11 +11 1013.0 999.1
12 17.07 З 1 н/о н/о +12.5 +7.2 70 +13 +13 1012.6 998.8
18 17.07 штиль 0 50 км 6/0
[]
+11.8 +8.6 81 +11 +12 1013.1 999.2 +14.9 0.8
21 17.07 штиль 0 н/о н/о +7.5 +7.3 99 +6 +6 1014.5 1000.4
00 18.07 штиль 0 н/о н/о +6.3 +6.3 100 +5 +5 1015.8 1001.6
03 18.07 штиль 0 н/о н/о +8.6 +8.5 99 +8 +8 1015.8 1001.6 +4.2
06 18.07 Ю 1 50 км 4/0
[]
+15.8 +7.7 59 +17 +22 1016.5 1002.8 +4.2
09 18.07 ЮВ 2 н/о н/о +18.6 +7.3 48 +19 +19 1016.6 1003.0
12 18.07 ЮВ 2 н/о н/о +18.9 +9.0 53 +20 +20 1016.7 1003.1
15 18.07 ЮВ 1 н/о н/о +16.9 +10.3 65 +18 +18 1016.7 1003.1
18 18.07 В 1 20 км 10/0
[]
+12.7 +12.4 98 +13 +13 1018.1 1004.2 +19.7
21 18.07 СВ 1 н/о н/о +11.9 +11.9 100 +12 +12 1017.9 1004.0
00 19.07 В 1 н/о н/о +11.7 +11.7 100 +11 +11 1017.2 1003.3

 

Местоположение метеостанции Верховье Лотты (Мурманская область, Россия): широта 68.53 долгота 28.92 высота над уровнем моря 115 м.

В архиве по умолчанию представлена погода в Верховье Лотты за последнюю неделю. Архивные данные за месяц целиком и за предыдущие месяцы, начиная с января 2011 года, Вы можете получить, выбрав интересующий диапазон дат из раскрывающегося списка и нажав кнопку "Ввод!".


*Определитесь, кто Вы:
робот инопланетянин человек

Внимание! Время в таблицах - всемирное. Для получения местного времени необходимо прибавить поправку, которая равна 3 ч.

Смотрите также архив погоды в соседних городах и на ближайших метеорологических станциях:

Погода в Инари Раджайосеппи (Финляндия) (26 км)
Погода в Неллиме (Финляндия) (44 км)
Погода в Янискоски (Мурманская область, Россия) (49 км)
Погода в Саариселькя (Финляндия) (61 км)
Погода в Аэропорту Ивало (Финляндия) (62 км)
Погода в Саариселькя (Финляндия) (63 км)
Погода в Инари Вайла (Финляндия) (64 км)
Погода в Нируде (Норвегия) (70 км)
Погода на Острове Сеиталасса (Финляндия) (74 км)
Погода в Ниванкюле (Мурманская область, Россия) (77 км)

Пояснения к столбцам:

Ветер - указаны скорость ветра в м/с - средняя за 10 мин, порывы в срок и между сроками (в фигурных скобках) и направление, откуда дует ветер: С - северный, СВ - северо-восточный, В - восточный, ЮВ - юго-восточный, Ю - южный, ЮЗ - юго-западный, З - западный, СЗ - северо-западный.
Видимость - горизонтальная дальность видимости в метрах или километрах. При видимости от 1 до 10 км при отсутствии осадков обычно наблюдается дымка, при ухудшении видимости до 1 км и менее - туман. В сухую погоду видимость может ухудшаться дымом, пылью или мглою.
Явления - указаны атмосферные явления, наблюдавшиеся в срок или в последний час перед сроком; фигурными скобками обозначены явления, наблюдавшиеся между сроками (за 1-3 часа до срока); квадратными скобками обозначены град или гололедные отложения с указанием их диаметра в мм.
Облачность - указаны через наклонную черту общая и нижняя облачность в баллах и высота нижней границы облаков в метрах; квадратными скобками обозначены формы облаков: Ci - перистые, Cs - перисто-слоистые, Cc - перисто-кучевые, Ac - высококучевые, As - высокослоистые, Sc - слоисто-кучевые, Ns - слоисто-дождевые, Cu - кучевые, Cb - кучево-дождевые. Подробнее классификацию облаков см. в Атласе облаков (PDF).
T - Температура воздуха - температура, измеренная на высоте 2 м над землей.
Td - Температура точки росы - температура, при понижении до которой содержащийся в воздухе водяной пар достигнет насыщения.
f - Относительная влажность воздуха - влажноcть воздуха, измеренная на высоте 2 м над землей.
Te - Эффективная температура - температура, которую ощущает одетый по сезону человек в тени. Характеристика душности погоды. При расчете учитывается влияние влажности воздуха и скорости ветра на теплоощущения человека.
Tes - Эффективная температура на солнце - температура, которую ощущает человек, с поправкой на солнечный нагрев. Характеристика знойности погоды. Зависит от высоты солнца над горизонтом, облачности и скорости ветра. Ночью, в пасмурную погоду, а также при ветре 12 м/с и более поправка равна нулю.
P - Атмосферное давление - приведенное к уровню моря атмосферное давление.
Po - Атмосферное давление - измеренное на уровне метеостанции атмосферное давление.
Tmin - Минимальная температура - минимум температуры воздуха на высоте 2 м над землей.
Tmax - Максимальная температура - максимум температуры воздуха на высоте 2 м над землей.
R - Количество осадков - Количество выпавших осадков за период времени, мм. При наведении курсора мыши на число - период времени, за который выпало указанное количество осадков.
R24 - Количество осадков - Количество выпавших осадков за 24 часа, мм.
S - Снежный покров - Высота снежного покрова, см. При наведении курсора мыши на число - состояние снежного покрова и степень покрытия местности в баллах.